Weather History for Juliana Airport, St. Martin

Change the Weather History Date:

Friday, October 21, 2011

  Actual Average Record
Temperature  
Mean Temperature 82 °F -  
Max Temperature 88 °F 85 °F 89 °F (2000)
Min Temperature 77 °F 75 °F 73 °F (2004)
Cooling Degree Days 18    
Growing Degree Days 32 (Base 50)    
Moisture  
Dew Point 72 °F    
Average Humidity 71    
Maximum Humidity 83    
Minimum Humidity 56    
Precipitation  
Precipitation 0.04 in 0.16 in - ()
Sea Level Pressure  
Sea Level Pressure 29.82 in    
Wind  
Wind Speed 8 mph ()    
Max Wind Speed 14 mph    
Max Gust Speed 17 mph    
Visibility 6.0 miles    
Events Rain , Tornado    
Averages and records for this station are not official NWS values.
T = Trace of Precipitation, MM = Missing Value Source: Averaged Metar Reports

Daily Weather History Graph

Daily Weather History Graph

Search for Another Location

Airport:

Trip Planner

Search our weather history database for the weather conditions in past years. The results will help you decide how hot, cold, wet, or windy it might be!

Date:

Astronomy

Oct. 21, 2011 Rise Set
Actual Time 6:07 AM AST 5:46 PM AST
Civil Twilight 5:45 AM AST 6:08 PM AST
Nautical Twilight 5:19 AM AST 6:33 PM AST
Astronomical Twilight 4:54 AM AST 6:59 PM AST
Moon 12:44 AM AST (10/21) 1:42 PM AST (10/21)
Length of Visible Light 12h 22m
Length of Day
11h 38m
Waning Crescent, 34% of the Moon is Illuminated
Oct 21
Waning Crescent
Oct 26
New
Nov 2
First Quarter
Nov 10
Full
Nov 18
Last Quarter

Hourly Weather History & Observations

Time (AST) Temp. Heat Index Dew Point Humidity Pressure Visibility Wind Dir Wind Speed Gust Speed Precip Events Conditions
12:00 AM 80.6 °F 85.4 °F 73.4 °F 79% 29.86 in 6.2 mi ENE 9.2 mph - N/A   Partly Cloudy
1:00 AM 80.6 °F 85.4 °F 73.4 °F 79% 29.83 in 6.2 mi ENE 11.5 mph - N/A   Partly Cloudy
2:00 AM 80.6 °F 84.6 °F 71.6 °F 74% 29.83 in 6.2 mi East 13.8 mph - N/A   Partly Cloudy
3:00 AM 80.6 °F 85.4 °F 73.4 °F 79% 29.80 in 6.2 mi ENE 9.2 mph - N/A   Partly Cloudy
4:00 AM 80.6 °F 84.6 °F 71.6 °F 74% 29.80 in 6.2 mi ENE 10.4 mph - N/A Rain Light Rain Showers
5:00 AM 78.8 °F - 73.4 °F 83% 29.80 in 6.2 mi ENE 10.4 mph - N/A   Partly Cloudy
6:00 AM 78.8 °F - 71.6 °F 78% 29.83 in 6.2 mi ENE 10.4 mph - N/A   Partly Cloudy
7:00 AM 80.6 °F 85.4 °F 73.4 °F 79% 29.83 in 6.2 mi NE 5.8 mph - N/A   Scattered Clouds
8:00 AM 81 °F - 74 °F 74% 29.86 in 28 mi NE 8.1 mph - -   Partly Cloudy
8:00 AM 80.6 °F 85.4 °F 73.4 °F 79% 29.86 in 6.2 mi NE 8.1 mph - N/A   Scattered Clouds
8:46 AM 78.8 °F - 68.0 °F 69% 29.89 in 4.3 mi ENE 11.5 mph - N/A Rain Rain Showers
9:00 AM 77.0 °F - 69.8 °F 78% 29.89 in 3.1 mi ENE 11.5 mph - N/A Rain Light Rain Showers
10:00 AM 82.4 °F 88.2 °F 73.4 °F 74% 29.86 in 6.2 mi ENE 4.6 mph 17.3 mph N/A   Scattered Clouds
11:00 AM 86 °F - 72 °F 56% 29.86 in 28 mi ENE 9.2 mph - -   Partly Cloudy
11:00 AM 86.0 °F 91.8 °F 71.6 °F 62% 29.86 in 6.2 mi ENE 9.2 mph - N/A   Scattered Clouds
12:00 PM 86.0 °F 91.8 °F 71.6 °F 62% 29.83 in 6.2 mi East 8.1 mph - N/A   Scattered Clouds
1:00 PM 87.8 °F 93.8 °F 71.6 °F 58% 29.80 in 6.2 mi East 8.1 mph - N/A   Scattered Clouds
2:00 PM 86 °F - 72 °F 56% 29.79 in 31 mi East 8.1 mph - -   Partly Cloudy
2:00 PM 86.0 °F 91.8 °F 71.6 °F 62% 29.77 in 6.2 mi East 8.1 mph - N/A Rain Light Rain Showers
3:00 PM 84.2 °F 89.6 °F 71.6 °F 66% 29.77 in 6.2 mi East 11.5 mph - N/A Rain Light Rain Showers
4:00 PM 84.2 °F 89.6 °F 71.6 °F 66% 29.77 in 6.2 mi ENE 8.1 mph - N/A   Partly Cloudy
5:00 PM 83 °F - 72 °F 61% 29.79 in 34 mi East 8.1 mph - -   Scattered Clouds
5:00 PM 84.2 °F 89.6 °F 71.6 °F 66% 29.77 in 6.2 mi East 8.1 mph - N/A   Partly Cloudy
6:00 PM 82.4 °F 87.2 °F 71.6 °F 70% 29.77 in 6.2 mi ENE 6.9 mph - N/A Tornado Partly Cloudy
6:30 PM 82.4 °F 87.2 °F 71.6 °F 70% 29.77 in 6.2 mi ENE 8.1 mph - N/A   Partly Cloudy
7:00 PM 80.6 °F 84.6 °F 71.6 °F 74% 29.80 in 6.2 mi ENE 8.1 mph - N/A   Partly Cloudy
8:00 PM 81 °F - 71 °F 65% 29.83 in 31 mi ENE 8.1 mph - -   Scattered Clouds
8:00 PM 80.6 °F 84.6 °F 71.6 °F 74% 29.80 in 6.2 mi ENE 8.1 mph - N/A   Partly Cloudy
9:00 PM 80.6 °F 84.6 °F 71.6 °F 74% 29.83 in 6.2 mi ESE 6.9 mph - N/A   Partly Cloudy
10:00 PM 80.6 °F 84.6 °F 71.6 °F 74% 29.83 in 6.2 mi East 8.1 mph - N/A   Partly Cloudy
11:00 PM 81 °F - 72 °F 67% 29.83 in 25 mi ESE 4.6 mph - -   Partly Cloudy
11:00 PM 80.6 °F 84.6 °F 71.6 °F 74% 29.83 in 6.2 mi ESE 4.6 mph - N/A   Scattered Clouds